• Em Portugal
  • Lista de países
  • Para 7 dias
  • Temperatura da água
  • Mapas de satélite
  • Mapa do tempo
  • Widgets de tempo
  • user-avatar
    Iniciar Sessão

    Previsão horária em Mikolajowka

    Hoje, 22 Outubro, Segunda-feira

    Tempo Temperatura Precipitação Vento Pressão Humidade
    00:00 +6°C° 0 mm 2 m/s 749 mmHg 84%
    01:00 +5°C° 0 mm 2 m/s 749 mmHg 85%
    02:00 +5°C° 0 mm 2 m/s 749 mmHg 88%
    03:00 +5°C° 0 mm 2 m/s 749 mmHg 89%
    04:00 +3°C° 0 mm 3 m/s 748 mmHg 89%
    05:00 +3°C° 0 mm 3 m/s 748 mmHg 90%
    06:00 +3°C° 0 mm 3 m/s 748 mmHg 89%
    07:00 +3°C° 0 mm 3 m/s 747 mmHg 89%
    08:00 +3°C° 0 mm 4 m/s 747 mmHg 85%
    09:00 +5°C° 0 mm 4 m/s 747 mmHg 80%
    10:00 +6°C° 0 mm 5 m/s 746 mmHg 74%
    11:00 +7°C° 0 mm 5 m/s 746 mmHg 68%
    12:00 +8°C° 0 mm 5 m/s 745 mmHg 67%
    13:00 +8°C° 0 mm 5 m/s 745 mmHg 65%
    14:00 +9°C° 0 mm 5 m/s 744 mmHg 64%
    15:00 +8°C° 0.2 mm 5 m/s 744 mmHg 69%
    16:00 +8°C° 0.2 mm 5 m/s 743 mmHg 73%
    17:00 +7°C° 0.2 mm 5 m/s 743 mmHg 78%
    18:00 +7°C° 0.4 mm 5 m/s 743 mmHg 80%
    19:00 +7°C° 0.4 mm 5 m/s 743 mmHg 82%
    20:00 +7°C° 0.4 mm 5 m/s 743 mmHg 85%
    21:00 +6°C° 0 mm 4 m/s 743 mmHg 86%
    22:00 +5°C° 0 mm 4 m/s 743 mmHg 87%
    23:00 +4°C° 0 mm 3 m/s 743 mmHg 88%

    Amanhã, 23 Outubro, Terça-feira

    Tempo Temperatura Precipitação Vento Pressão Humidade
    00:00 +4°C° 0 mm 3 m/s 743 mmHg 88%
    01:00 +3°C° 0 mm 3 m/s 743 mmHg 89%
    02:00 +3°C° 0 mm 3 m/s 743 mmHg 89%
    03:00 +3°C° 0 mm 3 m/s 742 mmHg 88%
    04:00 +3°C° 0 mm 4 m/s 741 mmHg 88%
    05:00 +3°C° 0 mm 4 m/s 741 mmHg 88%
    06:00 +3°C° 0.1 mm 4 m/s 740 mmHg 87%
    07:00 +2°C° 0.1 mm 5 m/s 739 mmHg 86%
    08:00 +3°C° 0.1 mm 5 m/s 738 mmHg 85%
    09:00 +3°C° 0.4 mm 6 m/s 737 mmHg 83%
    10:00 +4°C° 0.4 mm 7 m/s 736 mmHg 80%
    11:00 +4°C° 0.4 mm 8 m/s 735 mmHg 78%
    12:00 +4°C° 1 mm 8 m/s 733 mmHg 79%
    13:00 +4°C° 1 mm 8 m/s 731 mmHg 79%
    14:00 +3°C° 1 mm 9 m/s 730 mmHg 80%
    15:00 +3°C° 1.3 mm 9 m/s 728 mmHg 82%
    16:00 +4°C° 1.3 mm 8 m/s 727 mmHg 83%
    17:00 +5°C° 1.3 mm 8 m/s 725 mmHg 85%
    18:00 +5°C° 0.5 mm 7 m/s 725 mmHg 85%
    19:00 +5°C° 0.5 mm 7 m/s 724 mmHg 85%
    20:00 +7°C° 0.5 mm 6 m/s 723 mmHg 84%
    21:00 +5°C° 0.4 mm 6 m/s 723 mmHg 84%
    22:00 +5°C° 0.4 mm 6 m/s 722 mmHg 84%
    23:00 +6°C° 0.4 mm 5 m/s 721 mmHg 84%

    Depois de amanhã, 24 Outubro, Quarta-feira

    Tempo Temperatura Precipitação Vento Pressão Humidade
    00:00 +5°C° 0.4 mm 5 m/s 721 mmHg 84%
    01:00 +5°C° 0.4 mm 5 m/s 720 mmHg 85%
    02:00 +5°C° 0.4 mm 5 m/s 720 mmHg 85%
    03:00 +5°C° 0.9 mm 5 m/s 719 mmHg 85%
    04:00 +3°C° 0.9 mm 6 m/s 719 mmHg 85%
    05:00 +3°C° 0.9 mm 6 m/s 719 mmHg 85%
    06:00 +3°C° 0.5 mm 7 m/s 719 mmHg 81%
    07:00 +2°C° 0.5 mm 7 m/s 720 mmHg 77%
    08:00 +1°C° 0.5 mm 8 m/s 721 mmHg 73%
    09:00 +2°C° 0 mm 8 m/s 721 mmHg 71%
    10:00 +2°C° 0 mm 8 m/s 721 mmHg 70%
    11:00 +4°C° 0 mm 8 m/s 722 mmHg 68%
    12:00 +4°C° 0.5 mm 8 m/s 722 mmHg 71%
    13:00 +5°C° 0.5 mm 7 m/s 722 mmHg 74%
    14:00 +5°C° 0.5 mm 7 m/s 722 mmHg 77%
    15:00 +5°C° 0.3 mm 7 m/s 723 mmHg 78%
    16:00 +5°C° 0.3 mm 8 m/s 724 mmHg 78%
    17:00 +5°C° 0.3 mm 9 m/s 724 mmHg 78%
    18:00 +5°C° 0.2 mm 8 m/s 726 mmHg 78%
    19:00 +5°C° 0.2 mm 8 m/s 727 mmHg 79%
    20:00 +4°C° 0.2 mm 8 m/s 728 mmHg 80%
    21:00 +4°C° 0.1 mm 8 m/s 728 mmHg 79%
    22:00 +4°C° 0.1 mm 8 m/s 729 mmHg 79%
    23:00 +4°C° 0.1 mm 8 m/s 730 mmHg 79%

    25 Outubro, Quinta-feira

    Tempo Temperatura Precipitação Vento Pressão Humidade
    00:00 +3°C° 0 mm 7 m/s 730 mmHg 79%
    01:00 +3°C° 0 mm 7 m/s 730 mmHg 80%
    02:00 +2°C° 0 mm 6 m/s 731 mmHg 81%
    03:00 +2°C° 0 mm 6 m/s 731 mmHg 82%
    04:00 +2°C° 0 mm 5 m/s 730 mmHg 84%
    05:00 +1°C° 0 mm 5 m/s 730 mmHg 85%
    06:00 +1°C° 0 mm 4 m/s 730 mmHg 85%
    07:00 +3°C° 0 mm 3 m/s 729 mmHg 85%
    08:00 +3°C° 0 mm 3 m/s 729 mmHg 85%
    09:00 +3°C° 0.4 mm 3 m/s 728 mmHg 84%
    10:00 +3°C° 0.4 mm 3 m/s 728 mmHg 83%
    11:00 +4°C° 0.4 mm 2 m/s 727 mmHg 81%
    12:00 +4°C° 0.5 mm 2 m/s 727 mmHg 81%
    13:00 +4°C° 0.5 mm 2 m/s 727 mmHg 80%
    14:00 +5°C° 0.5 mm 1 m/s 727 mmHg 79%
    15:00 +4°C° 0 mm 2 m/s 727 mmHg 81%
    16:00 +4°C° 0 mm 2 m/s 728 mmHg 82%
    17:00 +4°C° 0 mm 2 m/s 729 mmHg 84%
    18:00 +3°C° 0 mm 2 m/s 729 mmHg 86%
    19:00 +3°C° 0 mm 2 m/s 730 mmHg 88%
    20:00 +3°C° 0 mm 2 m/s 730 mmHg 90%
    21:00 +3°C° 0 mm 2 m/s 730 mmHg 91%
    22:00 +2°C° 0 mm 2 m/s 731 mmHg 92%
    23:00 +2°C° 0 mm 2 m/s 731 mmHg 93%

    26 Outubro, Sexta-feira

    Tempo Temperatura Precipitação Vento Pressão Humidade
    00:00 +2°C° 0 mm 2 m/s 731 mmHg 93%
    01:00 +2°C° 0 mm 2 m/s 732 mmHg 93%
    02:00 +2°C° 0 mm 2 m/s 732 mmHg 94%
    03:00 +2°C° 0 mm 2 m/s 733 mmHg 94%
    04:00 +2°C° 0 mm 2 m/s 733 mmHg 94%
    05:00 +1°C° 0 mm 2 m/s 733 mmHg 94%
    06:00 +1°C° 0 mm 2 m/s 734 mmHg 94%
    07:00 +1°C° 0 mm 2 m/s 734 mmHg 94%
    08:00 +1°C° 0 mm 2 m/s 735 mmHg 94%
    09:00 +3°C° 0 mm 2 m/s 735 mmHg 88%
    10:00 +4°C° 0 mm 2 m/s 735 mmHg 82%
    11:00 +6°C° 0 mm 2 m/s 735 mmHg 76%
    12:00 +7°C° 0 mm 2 m/s 735 mmHg 72%
    13:00 +7°C° 0 mm 2 m/s 735 mmHg 68%
    14:00 +8°C° 0 mm 3 m/s 735 mmHg 65%
    15:00 +7°C° 0 mm 2 m/s 735 mmHg 69%
    16:00 +6°C° 0 mm 2 m/s 735 mmHg 74%
    17:00 +5°C° 0 mm 2 m/s 735 mmHg 78%
    18:00 +5°C° 0 mm 2 m/s 735 mmHg 80%
    19:00 +4°C° 0 mm 3 m/s 735 mmHg 83%
    20:00 +3°C° 0 mm 3 m/s 735 mmHg 85%
    21:00 +4°C° 0 mm 3 m/s 735 mmHg 85%
    22:00 +4°C° 0 mm 4 m/s 734 mmHg 86%
    23:00 +4°C° 0 mm 4 m/s 734 mmHg 87%

    27 Outubro, Sábado

    Tempo Temperatura Precipitação Vento Pressão Humidade
    00:00 +5°C° 0.1 mm 5 m/s 734 mmHg 86%
    01:00 +5°C° 0.1 mm 5 m/s 733 mmHg 85%
    02:00 +5°C° 0.1 mm 5 m/s 733 mmHg 84%
    03:00 +5°C° 0.1 mm 5 m/s 732 mmHg 84%
    04:00 +5°C° 0.1 mm 5 m/s 732 mmHg 83%
    05:00 +4°C° 0.1 mm 6 m/s 732 mmHg 83%
    06:00 +5°C° 0.2 mm 5 m/s 731 mmHg 85%
    07:00 +5°C° 0.2 mm 5 m/s 731 mmHg 87%
    08:00 +5°C° 0.2 mm 5 m/s 731 mmHg 89%
    09:00 +6°C° 0 mm 5 m/s 731 mmHg 87%
    10:00 +7°C° 0 mm 5 m/s 731 mmHg 85%
    11:00 +7°C° 0 mm 5 m/s 731 mmHg 84%
    12:00 +8°C° 0 mm 5 m/s 731 mmHg 82%
    13:00 +8°C° 0 mm 4 m/s 731 mmHg 80%
    14:00 +8°C° 0 mm 4 m/s 731 mmHg 79%
    15:00 +9°C° 0 mm 3 m/s 731 mmHg 81%
    16:00 +8°C° 0 mm 2 m/s 731 mmHg 84%
    17:00 +8°C° 0 mm 2 m/s 732 mmHg 86%
    18:00 +9°C° 0 mm 1 m/s 732 mmHg 88%
    19:00 +8°C° 0 mm 1 m/s 732 mmHg 89%
    20:00 +8°C° 0 mm 1 m/s 732 mmHg 90%
    21:00 +8°C° 0 mm 1 m/s 732 mmHg 91%
    22:00 +8°C° 0 mm 1 m/s 732 mmHg 91%
    23:00 +8°C° 0 mm 1 m/s 732 mmHg 91%

    28 Outubro, Domingo

    Tempo Temperatura Precipitação Vento Pressão Humidade
    00:00 +7°C° 0.9 mm 2 m/s 731 mmHg 92%
    01:00 +6°C° 0.9 mm 2 m/s 731 mmHg 94%
    02:00 +5°C° 0.9 mm 3 m/s 731 mmHg 95%
    03:00 +6°C° 0.8 mm 4 m/s 731 mmHg 94%
    04:00 +6°C° 0.8 mm 4 m/s 730 mmHg 94%
    05:00 +6°C° 0.8 mm 5 m/s 730 mmHg 94%
    06:00 +6°C° 1.4 mm 5 m/s 729 mmHg 94%
    07:00 +6°C° 1.4 mm 5 m/s 729 mmHg 94%
    08:00 +6°C° 1.4 mm 5 m/s 729 mmHg 93%
    09:00 +6°C° 0.5 mm 4 m/s 729 mmHg 93%
    10:00 +6°C° 0.5 mm 4 m/s 728 mmHg 93%
    11:00 +8°C° 0.5 mm 3 m/s 728 mmHg 93%
    12:00 +8°C° 1.8 mm 3 m/s 728 mmHg 93%
    13:00 +8°C° 1.8 mm 3 m/s 728 mmHg 94%
    14:00 +7°C° 1.8 mm 3 m/s 728 mmHg 94%
    15:00 +7°C° 0.5 mm 3 m/s 728 mmHg 94%
    16:00 +7°C° 0.5 mm 2 m/s 728 mmHg 95%
    17:00 +8°C° 0.5 mm 1 m/s 727 mmHg 95%
    18:00 +7°C° 0.1 mm 2 m/s 728 mmHg 94%
    19:00 +7°C° 0.1 mm 3 m/s 728 mmHg 93%
    20:00 +6°C° 0.1 mm 4 m/s 728 mmHg 91%
    21:00 +6°C° 0 mm 5 m/s 729 mmHg 90%
    22:00 +5°C° 0 mm 6 m/s 730 mmHg 88%
    23:00 +4°C° 0 mm 6 m/s 731 mmHg 87%
    Mostrar mais